Wetbulb
64.21 64.45 64.61 64.48 64.25 64.11 63.92 63.86 63.68 63.71 63.59 63.24 62.29 61.89 62.07 62.61 63.49 64.07 64.52 64.74 64.67 64.85 65.04 65.40 65.26 65.08 64.76 64.13 63.86 63.86 63.99 63.94 63.94 63.68 63.41 63.51 63.67 63.79 63.67 63.59 63.60 63.59 63.59 63.53 63.52 63.52 63.48 63.57 63.73 63.93 64.03 64.22 64.26 64.53 65.15 66.52 66.08 65.63 65.35 65.20 65.10 65.00 64.94 64.87 64.87 64.69 64.52 64.22 64.05
64.02 64.17 64.23 63.91 63.79 63.99 64.15 63.96 64.01 64.09 64.22 64.13 63.17 62.45 62.13 62.24 62.69 63.14 63.55 63.64 63.74 63.92 64.19 64.50 64.68 64.72 64.68 64.40 64.23 64.11 64.00 63.89 63.86 63.71 63.55 63.55 63.71 63.76 63.77 63.66 63.62 63.76 63.80 63.76 63.71 63.68 63.73 63.86 63.96 63.98 63.90 64.00 64.18 64.54 65.11 65.58 65.68 65.60 65.34 65.29 65.33 65.26 65.06 64.91 64.87 64.71 64.54 64.35 64.10
63.93 64.07 64.14 64.18 64.09 64.10 64.06 63.95 63.97 64.06 64.14 64.21 63.89 63.39 62.80 62.58 62.59 62.68 62.91 63.23 63.33 63.34 63.30 63.29 63.78 64.26 64.55 64.67 64.51 64.33 64.05 63.97 63.92 63.76 63.75 63.75 63.84 63.84 63.90 63.80 63.81 63.69 63.66 63.79 63.87 63.97 64.03 64.03 63.81 63.41 63.23 63.46 63.68 63.60 63.51 63.76 64.65 64.46 63.99 63.52 63.60 63.64 63.55 63.33 63.76 64.09 64.24 64.25 64.20
64.19 64.02 63.88 63.78 63.86 63.86 63.82 63.78 63.82 63.97 64.06 64.10 64.35 64.21 63.90 63.42 63.10 62.90 62.67 62.65 62.48 62.41 62.27 62.48 62.93 63.47 63.86 64.21 64.13 64.06 63.87 63.55 63.30 63.10 63.06 63.32 63.43 63.49 63.33 63.09 62.69 62.38 62.44 62.66 62.90 63.04 63.23 63.36 62.97 62.42 62.06 61.87 61.22 61.01 60.84 60.85 61.29 60.82 60.16 59.56 60.21 60.47 60.54 60.28 60.35 60.64 61.12 61.74 62.11
63.95 63.94 63.89 63.72 63.80 63.87 63.76 63.46 63.50 63.78 63.96 64.18 64.00 63.80 63.57 63.54 63.21 62.91 62.45 61.72 61.42 61.37 61.49 62.10 62.34 62.56 62.97 63.35 63.23 63.14 62.82 62.31 61.40 61.33 61.50 61.37 61.50 61.56 61.43 61.16 60.76 60.53 60.49 60.62 60.81 60.73 60.73 60.87 60.52 60.16 59.89 59.61 59.10 58.85 58.84 59.03 59.12 58.51 57.84 57.39 57.37 57.68 57.78 57.78 57.99 58.22 58.49 58.86 59.10
63.65 63.88 63.95 63.76 63.75 63.83 63.64 63.25 63.09 63.19 63.20 62.99 62.51 62.25 61.95 61.93 62.05 62.09 61.73 60.95 60.60 60.55 60.58 60.84 61.03 61.34 61.74 62.33 61.94 61.58 61.19 60.98 60.46 60.17 59.88 59.58 59.71 59.84 59.74 59.35 59.40 59.27 59.27 59.28 59.32 59.14 58.79 58.34 57.66 57.35 57.30 57.48 57.94 58.18 58.25 58.12 57.67 57.09 56.50 55.88 55.66 55.84 55.98 55.83 56.24 56.71 57.10 57.26 57.31
63.36 63.41 63.36 63.33 63.33 63.26 63.24 63.02 62.83 62.66 62.41 61.77 61.55 61.17 60.92 60.89 61.03 60.97 60.92 60.53 59.95 59.69 59.64 59.55 59.77 59.99 60.25 60.68 60.36 60.09 59.78 59.61 59.60 59.47 59.09 58.66 58.62 58.58 58.49 58.27 58.18 57.82 57.70 57.88 57.70 57.43 57.07 56.66 55.99 55.67 55.58 55.81 56.35 56.91 57.48 57.84 57.40 56.64 55.81 55.10 54.91 55.00 55.07 55.02 55.42 55.74 56.06 56.11 55.86
63.04 62.99 62.86 62.81 62.81 62.67 62.58 62.50 62.65 62.29 61.82 61.05 60.76 60.60 60.50 60.38 60.33 60.25 60.12 59.90 59.36 59.14 59.10 59.19 59.32 59.36 59.26 59.20 59.06 58.91 58.73 58.60 58.59 58.41 58.29 58.34 58.03 57.82 57.55 57.23 56.74 56.61 56.70 56.88 56.43 56.12 55.85 55.53 55.13 55.04 55.09 55.22 55.30 55.95 56.52 56.79 56.52 55.90 55.08 54.37 53.98 53.97 54.04 53.93 54.35 54.72 54.94 55.01 54.91
62.17 62.21 62.25 62.29 62.24 62.19 62.06 61.89 61.98 61.71 61.27 60.68 60.44 60.34 60.20 60.02 59.88 59.65 59.40 59.18 59.00 59.00 59.05 59.01 58.95 58.86 58.62 58.21 58.12 58.03 58.03 58.08 57.90 57.90 57.98 58.02 57.72 57.27 56.83 56.51 56.02 55.89 55.89 56.07 55.89 55.75 55.48 55.03 54.77 54.68 54.72 54.67 54.75 55.27 55.67 55.79 55.35 54.72 54.04 53.40 53.12 53.06 53.14 53.48 53.86 54.09 54.26 54.33 54.26
61.50 61.49 61.53 61.49 61.67 61.66 61.53 61.44 61.44 61.26 60.98 60.54 60.31 60.13 59.86 59.35 59.29 59.26 59.13 58.95 58.91 58.82 58.77 58.73 58.68 58.46 58.13 57.72 57.54 57.45 57.36 57.49 57.58 57.63 57.58 57.53 57.18 56.68 56.19 55.97 55.48 55.12 54.99 55.17 55.21 55.16 54.89 54.22 53.77 53.58 53.66 53.79 54.28 54.62 54.97 55.02 54.48 53.85 53.29 52.80 52.60 52.53 52.55 52.79 53.10 53.34 53.38 53.42 53.53
61.07 61.03 60.98 60.95 61.22 61.31 61.31 61.09 61.05 60.96 60.86 60.59 60.28 59.95 59.68 59.22 59.36 59.22 59.08 58.95 58.73 58.50 58.46 58.45 58.22 58.00 57.64 57.42 57.28 57.10 57.00 57.05 57.18 57.18 57.13 56.77 56.41 56.09 55.69 55.42 55.02 54.66 54.39 54.35 54.62 54.35 53.85 53.18 52.72 52.67 52.89 53.25 53.65 53.92 53.96 54.09 53.77 53.44 52.91 52.58 52.25 52.08 52.00 52.03 52.34 52.59 52.69 52.78 52.98
60.89 60.89 60.89 60.95 61.07 61.13 60.95 60.68 60.64 60.70 60.64 60.46 60.23 60.00 59.82 59.77 59.67 59.40 59.13 58.82 58.46 58.22 58.22 58.39 58.12 57.77 57.37 57.15 56.88 56.69 56.69 56.78 56.91 56.95 56.72 56.23 55.82 55.41 55.14 54.87 54.51 54.16 53.94 53.76 53.76 53.45 52.91 52.41 52.17 52.17 52.31 52.67 52.95 53.22 53.30 53.42 53.42 53.13 52.73 52.39 51.92 51.67 51.59 51.55 51.85 52.15 52.45 52.69 52.85
60.82 60.86 61.00 61.04 61.07 60.98 60.77 60.46 60.46 60.46 60.42 60.28 60.18 60.00 59.96 60.09 59.91 59.58 59.18 58.73 58.32 58.18 58.13 58.17 57.90 57.49 57.10 56.74 56.47 56.24 56.19 56.32 56.31 56.23 55.78 55.19 54.97 54.74 54.47 54.02 53.66 53.34 53.17 53.13 52.95 52.63 52.23 51.95 51.86 51.82 51.86 52.00 52.32 52.63 52.95 53.16 53.06 52.96 52.60 52.20 51.98 51.82 51.78 51.65 51.77 51.93 52.16 52.26 52.10
60.86 61.00 61.09 61.08 61.07 60.98 60.67 60.37 60.09 60.01 59.97 59.91 59.82 59.77 59.86 59.86 59.73 59.45 59.18 58.64 58.09 57.73 57.42 57.15 56.78 56.46 56.15 55.97 55.61 55.52 55.42 55.29 55.11 54.67 54.23 53.87 53.84 53.61 53.21 52.76 52.67 52.54 52.40 52.41 52.36 52.13 51.86 51.68 51.68 51.63 51.59 51.50 51.68 52.04 52.49 52.76 52.75 52.65 52.39 52.09 52.05 51.93 51.68 51.46 51.41 51.48 51.38 51.12 50.96
60.94 60.98 60.98 60.98 60.80 60.58 60.13 59.64 59.19 59.01 58.87 58.83 58.78 58.82 58.82 58.78 58.64 58.46 58.13 57.59 57.10 56.60 56.01 55.43 55.02 54.75 54.70 54.75 54.52 54.34 54.11 54.01 53.63 53.31 52.95 52.59 52.55 52.34 52.03 51.77 51.81 51.86 51.86 51.73 51.73 51.64 51.55 51.41 51.41 51.36 51.27 51.00 51.10 51.46 51.81 52.17 52.21 52.25 52.28 52.15 51.84 51.49 51.09 50.73 50.82 50.86 50.81 50.57 50.42
60.58 60.58 60.53 60.31 59.90 59.40 58.82 58.32 57.92 57.70 57.47 57.38 57.38 57.37 57.33 57.20 57.06 56.88 56.46 55.92 55.47 55.02 54.47 53.98 53.62 53.35 53.35 53.35 53.39 53.16 52.98 52.76 52.48 52.20 51.92 51.51 51.37 51.24 51.16 51.22 51.18 51.14 51.14 51.10 51.14 51.14 51.14 51.14 51.09 51.00 50.87 50.55 50.60 50.87 51.14 51.36 51.44 51.61 51.64 51.59 51.32 50.96 50.60 50.34 50.39 50.39 50.38 50.23 49.94
60.04 59.90 59.72 59.45 58.95 58.27 57.64 57.20 56.88 56.52 56.34 56.16 56.20 56.06 55.89 55.76 55.66 55.34 55.02 54.52 54.16 53.71 53.25 52.94 52.67 52.40 52.23 52.18 52.31 52.17 51.99 51.67 51.44 51.26 51.13 50.76 50.58 50.54 50.50 50.59 50.64 50.73 50.69 50.55 50.46 50.42 50.42 50.60 50.69 50.64 50.46 50.23 50.19 50.33 50.50 50.59 50.63 50.62 50.66 50.61 50.43 50.20 50.07 49.89 49.85 49.76 49.66 49.56 49.28
59.27 59.13 59.00 58.68 58.05 57.46 56.92 56.47 56.16 55.89 55.66 55.57 55.48 55.25 55.07 54.80 54.53 54.21 53.94 53.66 53.39 52.98 52.49 52.13 51.99 51.81 51.64 51.41 51.46 51.36 51.18 50.91 50.68 50.55 50.50 50.45 50.36 50.28 50.19 50.10 50.23 50.27 50.18 49.90 49.63 49.60 49.56 49.65 49.92 49.87 49.78 49.78 49.83 49.78 49.83 49.74 49.73 49.59 49.63 49.54 49.45 49.36 49.22 49.08 49.17 48.99 48.85 48.58 48.49
58.45 58.31 58.18 57.82 57.32 56.83 56.29 55.97 55.61 55.34 55.16 55.16 55.07 54.76 54.44 54.21 53.76 53.40 53.08 52.85 52.76 52.43 51.98 51.50 51.36 51.27 51.09 50.78 50.73 50.68 50.55 50.37 50.09 50.00 50.05 50.18 50.09 49.91 49.74 49.56 49.55 49.45 49.21 49.03 48.86 48.77 48.78 48.82 48.87 48.87 48.83 49.02 48.93 48.93 48.84 48.74 48.70 48.69 48.74 48.64 48.51 48.51 48.50 48.41 48.41 48.27 48.14 47.96 47.74
57.72 57.59 57.50 57.23 56.64 56.19 55.74 55.43 55.07 54.75 54.62 54.62 54.49 54.17 53.81 53.58 53.26 52.81 52.45 52.18 52.12 51.93 51.52 51.03 50.72 50.50 50.28 50.24 50.01 49.87 49.73 49.73 49.41 49.28 49.23 49.37 49.19 49.15 48.88 48.69 48.51 48.50 48.41 48.22 48.23 48.19 48.24 48.23 48.23 48.23 48.24 48.29 48.11 47.89 47.71 47.75 47.80 47.80 47.84 47.84 47.79 47.79 47.83 47.79 47.61 47.52 47.52 47.52 47.30
57.10 57.10 57.00 56.82 56.19 55.70 55.16 54.84 54.43 54.17 53.94 53.81 53.63 53.35 53.22 52.98 52.57 52.20 51.88 51.66 51.52 51.34 50.93 50.49 50.14 49.83 49.56 49.38 49.15 49.06 48.97 48.97 48.83 48.56 48.34 48.20 48.16 48.11 48.07 47.79 47.70 47.70 47.74 47.65 47.74 47.88 47.92 47.97 47.96 47.92 47.87 47.74 47.47 47.12 46.81 46.77 46.77 46.90 47.03 47.08 47.17 47.30 47.34 47.25 47.07 47.03 46.94 46.90 46.85
55.66 55.84 55.97 55.93 55.43 54.88 54.47 54.11 53.68 53.36 53.09 52.82 52.64 52.41 52.18 51.91 51.54 51.37 51.19 51.20 50.93 50.62 50.31 50.00 49.60 49.28 49.01 48.70 48.38 48.25 48.16 48.16 48.11 47.93 47.71 47.35 47.21 47.26 47.30 47.17 47.12 47.12 47.12 47.21 47.35 47.53 47.70 47.74 47.82 47.82 47.64 47.37 47.07 46.72 46.50 46.45 46.32 46.32 46.37 46.37 46.63 46.85 46.99 46.90 46.76 46.68 46.68 46.54 46.54
53.13 53.26 53.53 53.75 53.58 53.31 53.09 52.86 52.53 52.26 51.90 51.63 51.41 51.22 50.86 50.64 50.51 50.47 50.48 50.35 50.08 49.86 49.55 49.28 48.92 48.65 48.29 47.98 47.71 47.48 47.35 47.21 47.26 47.21 47.12 46.94 46.72 46.67 46.85 46.90 46.81 46.72 46.76 46.85 47.08 47.30 47.53 47.52 47.60 47.50 47.37 46.88 46.76 46.58 46.48 46.34 46.26 46.13 46.09 46.01 46.15 46.23 46.46 46.54 46.50 46.50 46.41 46.28 46.41
51.64 51.54 51.48 51.38 51.36 51.31 51.22 51.13 51.00 50.83 50.52 50.34 50.20 50.02 49.89 49.80 49.80 49.85 49.75 49.62 49.35 49.04 48.73 48.33 48.02 47.75 47.48 47.30 47.08 46.95 46.81 46.58 46.31 46.18 46.23 46.36 46.32 46.49 46.67 46.81 46.81 46.90 46.90 46.81 46.94 47.17 47.35 47.35 47.30 47.11 46.89 46.62 46.63 46.53 46.38 46.23 46.05 45.93 45.86 45.65 45.53 45.62 45.75 45.79 45.93 45.88 45.79 45.79 45.75
50.90 50.81 50.63 50.22 49.98 49.84 49.84 49.70 49.48 49.40 49.27 49.27 49.44 49.49 49.44 49.44 49.48 49.48 49.29 49.02 48.67 48.40 47.96 47.61 47.34 47.08 46.90 46.59 46.54 46.45 46.27 46.01 45.78 45.60 45.64 45.87 46.09 46.41 46.77 46.99 46.99 46.90 46.77 46.63 46.81 47.08 47.21 47.21 46.99 46.68 46.32 46.19 46.15 46.01 45.88 45.93 45.66 45.58 45.49 45.10 44.97 44.84 44.84 44.84 45.01 44.92 44.88 45.05 45.19
50.03 49.86 49.59 49.41 49.32 49.13 48.90 48.77 48.55 48.51 48.51 48.64 48.82 48.91 49.04 49.04 49.03 48.89 48.57 48.17 48.00 47.82 47.60 47.43 47.21 46.99 46.72 46.50 46.37 46.19 46.05 45.92 45.65 45.56 45.43 45.25 45.56 46.10 46.41 46.54 46.37 46.23 46.15 46.15 46.46 46.72 46.94 47.03 46.81 46.46 46.06 45.79 45.49 45.05 44.54 44.36 44.40 44.36 44.11 43.90 43.74 43.74 43.69 43.73 43.90 43.94 43.99 44.16 44.46
48.92 48.69 48.46 48.55 48.42 48.20 47.97 47.97 47.97 48.02 47.97 48.06 48.10 48.15 48.28 48.32 48.27 47.87 47.60 47.38 47.38 47.33 47.20 47.21 47.07 47.12 47.03 46.81 46.41 46.19 46.01 46.05 45.88 45.62 45.40 45.27 45.31 45.53 45.66 45.71 45.66 45.62 45.71 46.01 46.41 46.68 46.81 46.85 46.59 46.32 45.97 45.49 45.01 44.40 43.76 43.37 43.24 43.15 42.94 42.91 42.68 42.56 42.52 42.44 42.81 42.98 43.06 43.15 43.44
48.20 48.02 47.88 47.92 47.57 47.44 47.48 47.57 47.57 47.52 47.48 47.48 47.52 47.56 47.61 47.51 47.34 47.03 46.81 46.76 46.76 46.76 46.85 46.94 46.94 47.07 47.15 46.85 46.49 46.19 46.10 46.06 45.84 45.66 45.53 45.44 45.36 45.27 45.32 45.32 45.45 45.62 45.88 46.37 46.68 46.90 46.85 46.68 46.50 46.23 45.88 45.32 44.66 43.98 43.42 42.95 42.61 42.38 42.32 42.17 41.99 42.03 42.02 41.94 42.04 42.13 42.26 42.31 42.56
47.80 47.84 47.84 47.43 47.17 47.21 47.30 47.30 47.21 47.17 47.17 47.17 47.17 47.16 47.03 46.85 46.72 46.59 46.50 46.41 46.28 46.37 46.46 46.50 46.72 46.75 46.62 46.27 46.13 46.08 45.91 45.87 45.73 45.56 45.44 45.27 45.14 45.14 45.27 45.45 45.58 45.84 46.23 46.81 47.12 47.12 46.90 46.63 46.41 46.15 45.80 45.32 44.49 43.80 43.16 42.41 42.11 41.92 41.79 41.62 41.66 41.68 41.67 41.61 41.69 41.70 41.78 41.82 41.91
47.89 47.84 47.75 47.48 47.30 47.30 47.35 47.30 47.30 47.30 47.34 47.34 47.12 46.94 46.72 46.54 46.45 46.41 46.32 46.10 46.10 46.19 46.28 46.37 46.36 46.06 45.75 45.62 45.66 45.62 45.49 45.40 45.44 45.26 45.10 44.80 44.67 44.80 44.97 45.31 45.49 46.01 46.59 47.25 47.43 47.30 46.99 46.54 46.19 45.75 45.31 44.75 43.84 43.12 42.53 42.16 41.94 41.67 41.44 41.28 41.40 41.31 41.31 41.31 41.24 41.24 41.24 41.28 41.41
47.84 47.75 47.66 47.53 47.26 47.21 47.21 47.39 47.56 47.61 47.61 47.43 47.07 46.81 46.63 46.41 46.41 46.41 46.37 46.15 46.10 46.32 46.50 46.58 45.97 45.53 45.36 45.58 45.53 45.36 45.19 45.10 45.18 45.01 44.76 44.50 44.53 44.66 44.96 45.40 45.53 46.01 46.63 47.38 47.43 47.21 46.85 46.23 45.71 45.22 44.62 44.10 43.34 42.71 42.24 41.79 41.64 41.41 41.23 41.12 41.20 41.16 41.07 40.99 40.99 40.98 41.02 41.06 41.09
47.55 47.47 47.30 47.03 46.90 46.94 47.03 47.25 47.38 47.47 47.42 47.29 47.07 46.85 46.71 46.50 46.46 46.50 46.32 46.19 46.06 46.10 46.10 45.93 45.45 45.18 45.05 45.22 45.23 45.36 45.40 45.36 45.23 44.97 44.76 44.45 44.27 44.35 44.66 45.05 45.40 45.84 46.41 47.03 47.07 46.85 46.46 45.84 45.09 44.39 43.92 43.37 42.75 42.18 41.64 41.33 41.23 41.17 41.13 41.10 41.03 41.06 41.05 40.93 40.96 41.12 41.11 41.01 41.01
47.40 47.10 46.89 46.63 46.67 46.80 47.02 47.15 47.27 47.31 47.35 47.22 47.05 46.84 46.67 46.50 46.32 46.01 45.75 45.66 45.75 45.79 45.66 45.44 45.01 44.83 44.78 44.82 45.01 45.19 45.32 45.31 45.18 45.06 44.80 44.45 44.18 44.17 44.25 44.51 44.95 45.53 46.06 46.59 46.63 46.37 45.92 45.17 44.43 43.79 43.24 42.82 42.20 41.79 41.37 41.22 41.19 41.26 41.34 41.19 41.20 41.36 41.40 41.43 41.30 41.34 41.34 41.25 41.20
47.39 47.13 46.87 46.61 46.65 46.86 47.07 47.32 47.30 47.34 47.26 47.05 46.94 46.82 46.57 46.19 45.75 45.40 45.18 45.26 45.61 45.79 45.84 45.66 45.31 45.18 45.14 45.23 45.14 45.10 45.10 45.14 45.10 44.93 44.75 44.57 44.26 44.07 43.93 44.02 44.51 45.13 45.75 46.15 46.15 45.88 45.39 44.65 44.04 43.44 42.97 42.54 42.31 41.90 41.54 41.43 41.40 41.48 41.48 41.33 41.34 41.46 41.47 41.38 41.30 41.30 41.38 41.38 41.45
47.69 47.39 47.04 46.78 46.76 46.75 46.86 47.06 47.22 47.18 46.97 46.74 46.71 46.64 46.52 46.19 45.71 45.40 45.26 45.30 45.61 45.92 46.10 46.06 45.93 45.75 45.62 45.58 45.53 45.27 45.05 44.84 44.76 44.80 44.67 44.53 44.22 43.90 43.71 43.70 44.06 44.73 45.35 45.80 45.71 45.48 45.04 44.38 43.77 43.21 42.70 42.49 42.30 41.97 41.62 41.38 41.43 41.40 41.41 41.45 41.34 41.19 41.08 41.04 41.03 41.11 41.28 41.40 41.55
48.05 47.71 47.41 47.16 46.88 46.70 46.69 46.73 46.90 46.82 46.70 46.45 46.42 46.39 46.27 46.01 45.75 45.62 45.62 45.61 45.75 45.88 45.97 45.97 45.88 45.62 45.40 45.23 45.19 45.18 44.93 44.67 44.50 44.45 44.49 44.32 44.09 43.69 43.45 43.35 43.75 44.15 44.78 45.27 45.27 45.18 44.86 44.34 43.68 43.08 42.61 42.34 41.95 41.68 41.44 41.15 41.08 41.11 41.21 41.30 41.26 41.15 41.00 40.76 40.68 40.79 41.08 41.28 41.53
48.44 48.08 47.80 47.42 47.18 46.88 46.80 46.67 46.59 46.46 46.30 46.22 46.31 46.14 46.02 45.80 45.62 45.53 45.62 45.57 45.61 45.57 45.52 45.57 45.40 45.18 44.97 44.84 44.71 44.80 44.88 44.76 44.41 44.20 44.06 44.06 43.84 43.61 43.29 43.09 43.31 43.67 44.12 44.70 44.70 44.70 44.60 44.34 43.68 43.03 42.39 41.87 41.58 41.34 41.14 40.89 40.78 40.85 40.91 41.05 41.19 41.20 41.21 40.93 40.76 40.72 40.89 41.09 41.20
48.87 48.61 48.28 47.93 47.70 47.46 47.29 46.98 46.69 46.40 46.14 46.10 46.14 46.15 45.93 45.84 45.36 45.36 45.40 45.27 45.27 45.04 44.95 45.04 44.99 44.87 44.79 44.84 44.67 44.76 44.84 44.84 44.54 44.15 43.93 43.88 43.92 43.70 43.38 43.01 43.09 43.22 43.58 43.99 44.05 44.14 44.22 44.30 43.81 43.07 42.39 41.76 41.35 41.10 40.85 40.68 40.57 40.59 40.74 40.85 41.15 41.25 41.34 41.21 41.01 40.89 40.80 40.92 40.32
49.56 49.34 48.95 48.62 48.28 48.03 47.78 47.53 47.05 46.66 46.36 46.14 46.10 46.01 45.88 45.66 45.36 45.27 45.27 45.23 45.27 45.01 44.69 44.60 44.65 44.78 44.83 44.70 44.49 44.37 44.37 44.59 44.58 44.36 44.10 44.13 44.26 43.87 43.38 43.16 42.88 42.96 43.05 43.27 43.47 43.57 43.83 44.13 43.90 43.24 42.53 41.79 41.41 41.12 40.82 40.56 40.43 40.41 40.52 40.76 40.99 41.20 41.29 41.38 41.14 40.93 40.79 40.78 39.44
50.19 50.14 49.87 49.47 49.07 48.76 48.46 48.12 47.63 47.23 46.84 46.49 46.13 45.92 45.79 45.62 45.36 45.32 45.45 45.49 45.58 45.27 44.92 44.61 44.70 44.96 44.96 44.57 44.27 43.98 43.98 44.19 44.32 44.40 44.43 44.43 44.25 43.71 43.27 43.55 43.06 42.74 42.51 42.54 42.79 43.08 43.40 43.70 43.86 43.42 42.70 41.88 41.69 41.44 41.07 40.75 40.45 40.29 40.35 40.55 40.65 40.79 41.00 41.21 41.18 41.01 40.84 40.75 39.72
50.10 50.19 50.09 49.91 49.63 49.27 49.01 48.62 48.12 47.71 47.35 46.91 46.47 46.17 46.01 45.84 45.53 45.40 45.40 45.53 45.58 45.36 45.01 44.83 44.83 44.96 44.83 44.26 44.00 43.75 43.50 43.53 43.82 44.20 44.33 44.23 43.96 43.51 43.38 43.97 43.31 42.60 42.20 41.96 42.27 42.66 42.99 43.27 43.60 43.51 42.95 42.09 41.90 41.67 41.42 40.87 40.38 40.17 40.19 40.43 40.57 40.62 40.67 40.88 41.05 40.97 40.85 40.80 40.33
MSLP
1008.33 1008.53 1008.65 1008.81 1008.89 1009.01 1009.21 1009.37 1009.61 1009.81 1010.09 1010.29 1010.53 1010.73 1010.81 1010.77 1010.81 1010.85 1011.01 1011.21 1011.45 1011.65 1011.81 1011.85 1011.93 1012.05 1012.21 1012.41 1012.53 1012.61 1012.81 1012.97 1013.21 1013.41 1013.61 1013.77 1013.93 1014.01 1014.13 1014.25 1014.37 1014.53 1014.73 1015.05 1015.29 1015.45 1015.61 1015.81 1016.09 1016.33 1016.53 1016.65 1016.73 1016.77 1016.69 1016.53 1016.21 1016.05 1015.93 1015.93 1015.89 1015.81 1015.85 1015.93 1016.05 1016.17 1016.33 1016.53 1016.73
1008.33 1008.53 1008.65 1008.81 1008.93 1008.97 1009.09 1009.37 1009.61 1009.81 1010.09 1010.25 1010.49 1010.69 1010.85 1010.89 1010.93 1010.97 1011.09 1011.33 1011.57 1011.81 1012.01 1012.13 1012.21 1012.33 1012.53 1012.69 1012.77 1012.77 1012.81 1012.93 1013.09 1013.33 1013.49 1013.65 1013.81 1013.93 1014.05 1014.17 1014.21 1014.41 1014.73 1015.09 1015.33 1015.45 1015.53 1015.69 1015.97 1016.21 1016.45 1016.65 1016.73 1016.73 1016.65 1016.53 1016.25 1016.09 1016.01 1015.93 1015.93 1015.89 1015.89 1015.93 1016.01 1016.13 1016.33 1016.57 1016.73
1008.29 1008.49 1008.65 1008.81 1008.89 1008.97 1009.13 1009.37 1009.53 1009.73 1009.93 1010.09 1010.29 1010.45 1010.61 1010.81 1010.97 1011.09 1011.17 1011.37 1011.65 1011.93 1012.13 1012.29 1012.45 1012.57 1012.73 1012.81 1012.93 1012.93 1012.93 1012.97 1013.09 1013.21 1013.37 1013.49 1013.57 1013.73 1013.93 1014.09 1014.21 1014.45 1014.81 1015.21 1015.45 1015.49 1015.53 1015.65 1015.93 1016.21 1016.53 1016.73 1016.77 1016.73 1016.65 1016.53 1016.33 1016.21 1016.21 1016.17 1016.09 1016.09 1016.09 1016.13 1016.21 1016.33 1016.49 1016.65 1016.81
1008.21 1008.45 1008.65 1008.77 1008.89 1009.01 1009.17 1009.33 1009.49 1009.65 1009.77 1009.93 1010.09 1010.25 1010.41 1010.61 1010.81 1011.05 1011.21 1011.49 1011.73 1011.97 1012.17 1012.33 1012.53 1012.73 1012.93 1013.05 1013.09 1013.13 1013.13 1013.05 1013.05 1013.09 1013.13 1013.21 1013.41 1013.65 1013.93 1014.17 1014.37 1014.61 1014.93 1015.33 1015.53 1015.61 1015.65 1015.81 1016.09 1016.41 1016.73 1016.89 1016.85 1016.81 1016.73 1016.65 1016.61 1016.57 1016.61 1016.61 1016.49 1016.37 1016.37 1016.41 1016.53 1016.65 1016.73 1016.81 1016.93
1008.21 1008.33 1008.53 1008.69 1008.89 1009.09 1009.21 1009.37 1009.45 1009.53 1009.65 1009.77 1009.97 1010.17 1010.33 1010.45 1010.61 1010.85 1011.21 1011.49 1011.81 1011.97 1012.17 1012.33 1012.57 1012.81 1013.09 1013.29 1013.37 1013.37 1013.25 1013.09 1013.05 1012.97 1013.01 1013.13 1013.41 1013.73 1014.09 1014.33 1014.45 1014.61 1014.89 1015.29 1015.57 1015.69 1015.81 1016.05 1016.41 1016.73 1016.93 1017.05 1016.97 1016.93 1016.89 1016.85 1016.81 1016.81 1016.81 1016.89 1016.81 1016.69 1016.65 1016.73 1016.81 1016.93 1017.01 1017.09 1017.09
1008.09 1008.25 1008.45 1008.65 1008.93 1009.09 1009.25 1009.37 1009.37 1009.49 1009.65 1009.81 1009.93 1010.09 1010.33 1010.45 1010.57 1010.77 1011.01 1011.37 1011.73 1011.97 1012.17 1012.37 1012.69 1012.97 1013.21 1013.41 1013.49 1013.41 1013.21 1013.01 1012.93 1012.93 1012.97 1013.13 1013.45 1013.81 1014.17 1014.37 1014.45 1014.57 1014.81 1015.17 1015.45 1015.65 1015.93 1016.25 1016.65 1016.97 1017.13 1017.21 1017.17 1017.09 1017.01 1016.97 1017.01 1017.01 1017.01 1017.05 1017.01 1016.97 1016.93 1016.97 1017.05 1017.09 1017.09 1017.17 1017.21
1008.09 1008.29 1008.53 1008.69 1008.93 1009.09 1009.21 1009.25 1009.33 1009.49 1009.69 1009.89 1009.97 1010.09 1010.25 1010.45 1010.61 1010.77 1010.97 1011.29 1011.69 1012.01 1012.21 1012.49 1012.81 1013.05 1013.25 1013.37 1013.45 1013.29 1013.05 1012.93 1012.93 1012.93 1013.01 1013.21 1013.49 1013.85 1014.09 1014.33 1014.49 1014.69 1014.93 1015.21 1015.49 1015.81 1016.09 1016.37 1016.73 1017.01 1017.25 1017.41 1017.41 1017.29 1017.17 1017.09 1017.13 1017.13 1017.13 1017.13 1017.17 1017.17 1017.21 1017.21 1017.25 1017.25 1017.25 1017.25 1017.33
1008.13 1008.33 1008.53 1008.69 1008.85 1008.97 1009.09 1009.17 1009.29 1009.49 1009.77 1010.01 1010.17 1010.21 1010.25 1010.41 1010.65 1010.85 1011.09 1011.41 1011.73 1012.01 1012.25 1012.53 1012.81 1012.97 1013.09 1013.21 1013.21 1013.09 1012.93 1012.89 1012.93 1013.01 1013.17 1013.33 1013.57 1013.81 1014.01 1014.21 1014.45 1014.77 1015.09 1015.37 1015.65 1015.93 1016.17 1016.45 1016.69 1016.97 1017.29 1017.53 1017.61 1017.49 1017.29 1017.21 1017.21 1017.21 1017.21 1017.21 1017.29 1017.33 1017.37 1017.45 1017.45 1017.41 1017.41 1017.41 1017.45
1008.09 1008.29 1008.45 1008.57 1008.69 1008.81 1008.93 1009.05 1009.21 1009.41 1009.73 1010.05 1010.29 1010.41 1010.49 1010.53 1010.65 1010.93 1011.21 1011.53 1011.81 1012.05 1012.29 1012.53 1012.65 1012.81 1012.93 1013.01 1013.01 1012.93 1012.89 1012.85 1012.93 1013.13 1013.29 1013.49 1013.65 1013.85 1013.97 1014.13 1014.37 1014.69 1015.05 1015.41 1015.77 1016.05 1016.25 1016.45 1016.65 1016.93 1017.21 1017.49 1017.65 1017.57 1017.49 1017.41 1017.41 1017.37 1017.37 1017.37 1017.37 1017.45 1017.49 1017.53 1017.53 1017.49 1017.53 1017.57 1017.57
1007.97 1008.13 1008.21 1008.37 1008.41 1008.53 1008.65 1008.81 1009.09 1009.33 1009.65 1010.09 1010.41 1010.65 1010.77 1010.77 1010.85 1011.01 1011.21 1011.49 1011.81 1012.05 1012.21 1012.37 1012.49 1012.53 1012.57 1012.65 1012.73 1012.77 1012.77 1012.81 1012.93 1013.17 1013.37 1013.57 1013.81 1013.93 1014.05 1014.13 1014.25 1014.53 1014.89 1015.33 1015.77 1016.09 1016.33 1016.45 1016.65 1016.93 1017.21 1017.49 1017.65 1017.65 1017.65 1017.61 1017.61 1017.57 1017.53 1017.53 1017.49 1017.49 1017.49 1017.53 1017.57 1017.61 1017.65 1017.69 1017.73
1007.89 1007.93 1008.05 1008.13 1008.21 1008.37 1008.57 1008.89 1009.21 1009.57 1009.93 1010.29 1010.61 1010.81 1010.93 1010.93 1011.01 1011.09 1011.21 1011.41 1011.69 1011.89 1012.05 1012.17 1012.13 1012.13 1012.17 1012.29 1012.45 1012.57 1012.69 1012.81 1012.93 1013.13 1013.37 1013.61 1013.81 1013.93 1014.09 1014.17 1014.25 1014.37 1014.65 1015.05 1015.57 1016.05 1016.37 1016.53 1016.65 1016.85 1017.17 1017.49 1017.69 1017.81 1017.81 1017.81 1017.77 1017.73 1017.73 1017.69 1017.61 1017.49 1017.49 1017.53 1017.57 1017.65 1017.69 1017.77 1017.81
1007.93 1008.01 1008.09 1008.21 1008.37 1008.57 1008.89 1009.29 1009.65 1010.01 1010.29 1010.53 1010.73 1010.85 1010.93 1010.93 1010.97 1011.09 1011.21 1011.37 1011.53 1011.65 1011.77 1011.81 1011.77 1011.77 1011.85 1012.09 1012.37 1012.61 1012.77 1012.93 1013.05 1013.17 1013.37 1013.53 1013.69 1013.89 1014.05 1014.09 1014.21 1014.33 1014.45 1014.73 1015.21 1015.81 1016.25 1016.53 1016.65 1016.81 1017.17 1017.49 1017.81 1017.89 1017.89 1017.85 1017.85 1017.85 1017.85 1017.85 1017.65 1017.49 1017.41 1017.49 1017.49 1017.61 1017.69 1017.81 1017.89
1008.09 1008.21 1008.37 1008.53 1008.69 1008.93 1009.21 1009.57 1009.93 1010.17 1010.37 1010.53 1010.65 1010.73 1010.77 1010.81 1010.93 1011.09 1011.21 1011.37 1011.49 1011.53 1011.61 1011.61 1011.57 1011.57 1011.65 1011.93 1012.29 1012.65 1012.93 1013.13 1013.25 1013.37 1013.49 1013.65 1013.77 1013.89 1013.97 1014.09 1014.13 1014.25 1014.37 1014.53 1014.97 1015.57 1016.09 1016.41 1016.61 1016.81 1017.13 1017.53 1017.77 1017.85 1017.85 1017.81 1017.85 1017.93 1017.93 1017.85 1017.65 1017.49 1017.45 1017.49 1017.53 1017.65 1017.77 1017.85 1017.93
1008.33 1008.49 1008.65 1008.81 1008.97 1009.21 1009.45 1009.73 1009.93 1010.17 1010.33 1010.49 1010.57 1010.65 1010.73 1010.81 1010.93 1011.09 1011.21 1011.37 1011.49 1011.57 1011.65 1011.65 1011.65 1011.61 1011.53 1011.65 1012.09 1012.53 1012.93 1013.25 1013.49 1013.65 1013.81 1013.93 1013.97 1014.01 1014.05 1014.09 1014.13 1014.21 1014.37 1014.53 1014.93 1015.41 1015.93 1016.33 1016.53 1016.81 1017.13 1017.45 1017.65 1017.73 1017.77 1017.73 1017.81 1017.93 1017.97 1017.85 1017.65 1017.53 1017.53 1017.61 1017.69 1017.81 1017.93 1018.05 1018.09
1008.53 1008.69 1008.81 1008.97 1009.13 1009.33 1009.53 1009.77 1009.93 1010.13 1010.33 1010.45 1010.53 1010.65 1010.73 1010.89 1011.01 1011.13 1011.29 1011.41 1011.53 1011.65 1011.69 1011.77 1011.77 1011.57 1011.33 1011.29 1011.73 1012.37 1012.97 1013.45 1013.73 1013.93 1014.05 1014.13 1014.17 1014.17 1014.17 1014.21 1014.21 1014.25 1014.37 1014.65 1015.01 1015.41 1015.81 1016.21 1016.53 1016.81 1017.09 1017.37 1017.49 1017.57 1017.65 1017.73 1017.85 1017.93 1017.97 1017.85 1017.73 1017.65 1017.65 1017.77 1017.85 1017.93 1018.01 1018.17 1018.29
1008.77 1008.89 1009.01 1009.17 1009.33 1009.49 1009.65 1009.85 1010.01 1010.17 1010.33 1010.45 1010.57 1010.65 1010.81 1010.93 1011.09 1011.21 1011.37 1011.49 1011.61 1011.69 1011.69 1011.65 1011.53 1011.29 1011.09 1011.17 1011.73 1012.49 1013.17 1013.65 1013.85 1014.01 1014.13 1014.21 1014.33 1014.37 1014.37 1014.33 1014.37 1014.41 1014.61 1014.85 1015.17 1015.53 1015.89 1016.21 1016.53 1016.81 1017.09 1017.25 1017.37 1017.45 1017.57 1017.73 1017.85 1017.93 1017.97 1017.93 1017.85 1017.81 1017.85 1017.93 1018.01 1018.05 1018.09 1018.25 1018.37
1008.93 1009.09 1009.21 1009.33 1009.45 1009.61 1009.81 1009.93 1010.09 1010.21 1010.37 1010.53 1010.65 1010.77 1010.89 1011.05 1011.21 1011.29 1011.41 1011.49 1011.61 1011.65 1011.61 1011.49 1011.29 1011.13 1011.21 1011.53 1012.13 1012.81 1013.33 1013.69 1013.93 1014.05 1014.17 1014.21 1014.37 1014.45 1014.53 1014.53 1014.57 1014.69 1014.85 1015.09 1015.37 1015.65 1016.01 1016.29 1016.61 1016.85 1017.05 1017.17 1017.25 1017.37 1017.53 1017.69 1017.89 1018.05 1018.09 1018.05 1018.01 1018.01 1018.05 1018.13 1018.21 1018.21 1018.25 1018.37 1018.41
1009.09 1009.21 1009.29 1009.41 1009.53 1009.65 1009.81 1009.97 1010.17 1010.33 1010.49 1010.61 1010.77 1010.89 1011.01 1011.13 1011.21 1011.37 1011.45 1011.49 1011.53 1011.53 1011.53 1011.49 1011.41 1011.37 1011.57 1012.01 1012.53 1013.01 1013.37 1013.69 1013.89 1014.05 1014.17 1014.25 1014.37 1014.45 1014.57 1014.65 1014.81 1014.97 1015.13 1015.33 1015.57 1015.81 1016.09 1016.41 1016.65 1016.93 1017.09 1017.13 1017.21 1017.37 1017.53 1017.77 1017.97 1018.13 1018.21 1018.21 1018.17 1018.17 1018.21 1018.29 1018.33 1018.37 1018.41 1018.49 1018.49
1009.13 1009.25 1009.37 1009.49 1009.57 1009.69 1009.81 1009.97 1010.17 1010.37 1010.53 1010.65 1010.85 1010.97 1011.09 1011.21 1011.29 1011.37 1011.49 1011.61 1011.61 1011.61 1011.65 1011.69 1011.77 1011.89 1012.09 1012.37 1012.81 1013.17 1013.49 1013.69 1013.93 1014.09 1014.21 1014.33 1014.37 1014.53 1014.65 1014.81 1015.01 1015.17 1015.37 1015.53 1015.77 1016.01 1016.21 1016.53 1016.77 1016.93 1017.09 1017.21 1017.29 1017.41 1017.65 1017.89 1018.09 1018.25 1018.29 1018.29 1018.29 1018.29 1018.33 1018.37 1018.41 1018.45 1018.53 1018.57 1018.57
1009.21 1009.33 1009.37 1009.49 1009.61 1009.73 1009.81 1009.97 1010.17 1010.37 1010.57 1010.73 1010.93 1011.09 1011.21 1011.29 1011.37 1011.49 1011.65 1011.73 1011.81 1011.81 1011.85 1011.93 1012.09 1012.29 1012.53 1012.73 1013.01 1013.33 1013.57 1013.81 1013.93 1014.13 1014.29 1014.41 1014.53 1014.65 1014.77 1014.93 1015.13 1015.33 1015.49 1015.65 1015.93 1016.17 1016.37 1016.61 1016.85 1017.05 1017.13 1017.25 1017.37 1017.57 1017.81 1018.05 1018.21 1018.29 1018.33 1018.33 1018.33 1018.37 1018.37 1018.41 1018.49 1018.53 1018.57 1018.65 1018.65
1009.25 1009.37 1009.41 1009.49 1009.65 1009.77 1009.85 1010.01 1010.21 1010.37 1010.61 1010.81 1010.93 1011.13 1011.29 1011.45 1011.53 1011.65 1011.77 1011.93 1012.01 1012.09 1012.17 1012.25 1012.37 1012.57 1012.77 1012.93 1013.17 1013.41 1013.65 1013.89 1014.09 1014.25 1014.41 1014.57 1014.65 1014.81 1014.93 1015.05 1015.21 1015.41 1015.61 1015.81 1016.05 1016.25 1016.53 1016.73 1016.89 1017.05 1017.17 1017.33 1017.49 1017.73 1017.93 1018.13 1018.21 1018.29 1018.33 1018.33 1018.29 1018.33 1018.37 1018.41 1018.49 1018.57 1018.61 1018.65 1018.65
1009.37 1009.45 1009.49 1009.57 1009.69 1009.85 1009.97 1010.13 1010.29 1010.49 1010.65 1010.85 1011.05 1011.21 1011.37 1011.57 1011.73 1011.85 1011.97 1012.13 1012.25 1012.37 1012.49 1012.57 1012.65 1012.81 1012.93 1013.09 1013.29 1013.49 1013.77 1014.01 1014.21 1014.37 1014.53 1014.69 1014.81 1014.97 1015.09 1015.21 1015.37 1015.57 1015.73 1015.93 1016.13 1016.33 1016.53 1016.73 1016.89 1017.05 1017.25 1017.49 1017.69 1017.89 1018.05 1018.09 1018.17 1018.21 1018.21 1018.21 1018.25 1018.29 1018.37 1018.41 1018.49 1018.57 1018.65 1018.65 1018.73
1009.61 1009.65 1009.73 1009.81 1009.93 1010.01 1010.13 1010.25 1010.45 1010.61 1010.81 1011.01 1011.17 1011.37 1011.53 1011.69 1011.89 1012.09 1012.21 1012.33 1012.49 1012.61 1012.73 1012.85 1012.93 1013.05 1013.17 1013.37 1013.49 1013.65 1013.89 1014.09 1014.33 1014.53 1014.65 1014.81 1014.93 1015.13 1015.29 1015.45 1015.61 1015.73 1015.89 1016.09 1016.21 1016.37 1016.57 1016.77 1016.93 1017.17 1017.37 1017.61 1017.81 1017.93 1017.97 1017.97 1017.97 1018.01 1018.05 1018.09 1018.21 1018.29 1018.37 1018.37 1018.45 1018.53 1018.65 1018.69 1018.77
1009.81 1009.89 1009.93 1010.09 1010.17 1010.25 1010.37 1010.49 1010.65 1010.81 1010.97 1011.21 1011.37 1011.61 1011.77 1011.93 1012.09 1012.25 1012.37 1012.53 1012.65 1012.81 1012.93 1013.09 1013.25 1013.37 1013.45 1013.61 1013.81 1013.93 1014.09 1014.25 1014.45 1014.65 1014.81 1014.93 1015.09 1015.29 1015.45 1015.61 1015.77 1015.93 1016.09 1016.21 1016.33 1016.45 1016.57 1016.81 1017.01 1017.25 1017.49 1017.69 1017.81 1017.89 1017.85 1017.85 1017.85 1017.89 1017.93 1018.01 1018.13 1018.25 1018.37 1018.37 1018.45 1018.53 1018.65 1018.73 1018.77
1010.01 1010.09 1010.21 1010.37 1010.45 1010.57 1010.65 1010.77 1010.89 1011.05 1011.21 1011.41 1011.61 1011.81 1011.93 1012.09 1012.25 1012.41 1012.57 1012.69 1012.85 1013.01 1013.17 1013.33 1013.49 1013.57 1013.69 1013.85 1014.05 1014.21 1014.37 1014.49 1014.61 1014.77 1014.93 1015.09 1015.25 1015.37 1015.53 1015.73 1015.89 1016.05 1016.17 1016.29 1016.45 1016.57 1016.69 1016.85 1017.09 1017.33 1017.53 1017.73 1017.81 1017.81 1017.85 1017.89 1017.93 1017.93 1017.93 1017.97 1018.05 1018.17 1018.25 1018.33 1018.45 1018.57 1018.69 1018.81 1018.81
1010.21 1010.29 1010.45 1010.61 1010.73 1010.81 1010.93 1011.09 1011.17 1011.33 1011.45 1011.61 1011.77 1011.93 1012.09 1012.25 1012.41 1012.53 1012.69 1012.89 1013.09 1013.21 1013.37 1013.49 1013.65 1013.81 1013.93 1014.05 1014.25 1014.45 1014.65 1014.73 1014.81 1014.93 1015.09 1015.21 1015.37 1015.49 1015.65 1015.81 1015.93 1016.09 1016.25 1016.41 1016.53 1016.65 1016.81 1016.93 1017.17 1017.37 1017.57 1017.65 1017.73 1017.77 1017.89 1018.01 1018.05 1018.09 1018.05 1018.05 1018.09 1018.17 1018.25 1018.33 1018.45 1018.61 1018.69 1018.73 1018.77
1010.41 1010.57 1010.73 1010.85 1010.93 1011.09 1011.21 1011.37 1011.45 1011.57 1011.69 1011.81 1011.93 1012.09 1012.25 1012.41 1012.57 1012.73 1012.89 1013.09 1013.21 1013.37 1013.53 1013.69 1013.81 1013.93 1014.09 1014.21 1014.37 1014.57 1014.81 1014.93 1015.05 1015.13 1015.21 1015.37 1015.49 1015.65 1015.77 1015.93 1016.01 1016.21 1016.37 1016.53 1016.65 1016.77 1016.93 1017.09 1017.25 1017.41 1017.53 1017.57 1017.65 1017.73 1017.85 1018.01 1018.09 1018.17 1018.21 1018.21 1018.21 1018.25 1018.33 1018.41 1018.49 1018.57 1018.65 1018.69 1018.73
1010.65 1010.81 1010.93 1011.09 1011.21 1011.33 1011.45 1011.57 1011.65 1011.81 1011.93 1012.01 1012.09 1012.25 1012.37 1012.57 1012.77 1012.93 1013.05 1013.21 1013.37 1013.53 1013.69 1013.85 1013.93 1014.05 1014.17 1014.33 1014.53 1014.69 1014.89 1015.05 1015.17 1015.25 1015.37 1015.45 1015.53 1015.69 1015.81 1015.97 1016.09 1016.25 1016.41 1016.57 1016.65 1016.81 1016.97 1017.09 1017.25 1017.37 1017.41 1017.45 1017.57 1017.73 1017.85 1018.01 1018.13 1018.21 1018.29 1018.33 1018.37 1018.41 1018.49 1018.53 1018.57 1018.65 1018.65 1018.69 1018.73
1010.93 1011.05 1011.17 1011.29 1011.41 1011.57 1011.65 1011.77 1011.85 1011.97 1012.09 1012.21 1012.33 1012.41 1012.57 1012.73 1012.93 1013.09 1013.21 1013.37 1013.53 1013.69 1013.81 1013.93 1014.09 1014.17 1014.33 1014.49 1014.65 1014.81 1014.97 1015.09 1015.21 1015.33 1015.45 1015.57 1015.69 1015.81 1015.93 1016.09 1016.21 1016.33 1016.45 1016.53 1016.65 1016.77 1016.89 1017.01 1017.13 1017.21 1017.29 1017.41 1017.61 1017.77 1017.89 1018.01 1018.13 1018.21 1018.33 1018.37 1018.45 1018.53 1018.61 1018.65 1018.65 1018.65 1018.65 1018.73 1018.77
1011.25 1011.33 1011.41 1011.49 1011.65 1011.77 1011.85 1011.93 1012.05 1012.17 1012.29 1012.41 1012.49 1012.57 1012.73 1012.89 1013.05 1013.21 1013.41 1013.53 1013.69 1013.81 1013.93 1014.05 1014.17 1014.29 1014.45 1014.61 1014.77 1014.93 1015.09 1015.21 1015.33 1015.45 1015.53 1015.65 1015.81 1015.93 1016.09 1016.17 1016.25 1016.37 1016.49 1016.53 1016.57 1016.65 1016.81 1016.89 1017.01 1017.13 1017.29 1017.49 1017.65 1017.81 1017.93 1018.05 1018.17 1018.29 1018.37 1018.45 1018.53 1018.57 1018.65 1018.65 1018.65 1018.65 1018.73 1018.77 1018.73
1011.49 1011.57 1011.65 1011.73 1011.85 1011.93 1012.01 1012.09 1012.21 1012.33 1012.41 1012.53 1012.61 1012.73 1012.85 1013.01 1013.21 1013.37 1013.53 1013.69 1013.81 1013.93 1014.05 1014.13 1014.25 1014.41 1014.57 1014.77 1014.93 1015.09 1015.21 1015.33 1015.45 1015.57 1015.65 1015.81 1015.93 1016.05 1016.13 1016.25 1016.33 1016.37 1016.45 1016.49 1016.53 1016.65 1016.73 1016.85 1016.97 1017.21 1017.37 1017.53 1017.69 1017.85 1017.93 1018.09 1018.21 1018.29 1018.37 1018.45 1018.53 1018.57 1018.61 1018.65 1018.65 1018.65 1018.69 1018.73 1018.73
1011.65 1011.81 1011.85 1011.93 1012.05 1012.17 1012.21 1012.33 1012.37 1012.49 1012.57 1012.61 1012.69 1012.81 1012.93 1013.13 1013.37 1013.53 1013.69 1013.81 1013.93 1014.05 1014.13 1014.21 1014.37 1014.53 1014.77 1014.93 1015.09 1015.17 1015.25 1015.37 1015.49 1015.61 1015.73 1015.89 1016.01 1016.09 1016.21 1016.29 1016.37 1016.41 1016.49 1016.53 1016.57 1016.65 1016.81 1016.93 1017.09 1017.33 1017.49 1017.65 1017.73 1017.81 1017.97 1018.09 1018.21 1018.29 1018.37 1018.41 1018.45 1018.53 1018.53 1018.61 1018.65 1018.65 1018.69 1018.77 1018.77
1011.77 1011.89 1012.01 1012.09 1012.21 1012.29 1012.37 1012.45 1012.53 1012.57 1012.65 1012.69 1012.81 1012.93 1013.09 1013.29 1013.45 1013.65 1013.81 1013.93 1014.05 1014.13 1014.21 1014.33 1014.49 1014.65 1014.85 1015.01 1015.13 1015.25 1015.33 1015.41 1015.53 1015.69 1015.85 1015.97 1016.09 1016.21 1016.29 1016.37 1016.45 1016.49 1016.53 1016.53 1016.65 1016.77 1016.89 1017.05 1017.21 1017.41 1017.57 1017.69 1017.81 1017.89 1018.01 1018.09 1018.17 1018.21 1018.29 1018.37 1018.37 1018.45 1018.53 1018.57 1018.57 1018.65 1018.65 1018.73 1018.77
1011.89 1011.97 1012.09 1012.21 1012.25 1012.37 1012.41 1012.53 1012.57 1012.65 1012.69 1012.81 1012.93 1013.05 1013.21 1013.37 1013.53 1013.73 1013.89 1014.05 1014.17 1014.21 1014.33 1014.45 1014.61 1014.77 1014.93 1015.09 1015.21 1015.33 1015.41 1015.49 1015.65 1015.81 1015.93 1016.09 1016.17 1016.25 1016.37 1016.41 1016.53 1016.53 1016.57 1016.57 1016.65 1016.81 1016.93 1017.09 1017.25 1017.45 1017.61 1017.73 1017.89 1017.93 1018.01 1018.09 1018.09 1018.13 1018.21 1018.21 1018.33 1018.37 1018.45 1018.49 1018.53 1018.57 1018.61 1018.65 1018.69
1012.01 1012.09 1012.21 1012.29 1012.33 1012.37 1012.45 1012.53 1012.61 1012.73 1012.81 1012.93 1013.05 1013.17 1013.33 1013.49 1013.65 1013.81 1013.97 1014.09 1014.21 1014.37 1014.45 1014.53 1014.69 1014.85 1015.01 1015.17 1015.21 1015.37 1015.49 1015.61 1015.73 1015.89 1016.01 1016.13 1016.21 1016.29 1016.37 1016.45 1016.53 1016.61 1016.61 1016.61 1016.69 1016.81 1016.97 1017.13 1017.29 1017.49 1017.65 1017.77 1017.85 1017.93 1017.97 1017.97 1018.01 1018.09 1018.09 1018.13 1018.21 1018.25 1018.33 1018.41 1018.49 1018.53 1018.57 1018.61 1018.65
1012.09 1012.13 1012.25 1012.33 1012.41 1012.53 1012.57 1012.65 1012.73 1012.85 1012.93 1013.05 1013.17 1013.29 1013.45 1013.61 1013.77 1013.93 1014.09 1014.21 1014.29 1014.37 1014.53 1014.65 1014.81 1014.93 1015.09 1015.21 1015.33 1015.41 1015.49 1015.65 1015.81 1015.93 1016.01 1016.09 1016.21 1016.29 1016.37 1016.49 1016.53 1016.61 1016.65 1016.61 1016.69 1016.81 1016.93 1017.13 1017.33 1017.49 1017.65 1017.73 1017.81 1017.85 1017.89 1017.93 1017.97 1018.01 1018.05 1018.09 1018.13 1018.21 1018.25 1018.33 1018.37 1018.45 1018.53 1018.53 1018.57
1012.17 1012.21 1012.33 1012.41 1012.53 1012.65 1012.77 1012.81 1012.93 1013.01 1013.09 1013.21 1013.33 1013.45 1013.53 1013.65 1013.85 1014.01 1014.13 1014.25 1014.37 1014.49 1014.65 1014.77 1014.89 1015.01 1015.13 1015.25 1015.37 1015.45 1015.53 1015.65 1015.77 1015.89 1016.01 1016.09 1016.13 1016.21 1016.33 1016.41 1016.53 1016.65 1016.65 1016.65 1016.73 1016.81 1016.97 1017.13 1017.33 1017.49 1017.57 1017.65 1017.77 1017.81 1017.85 1017.89 1017.93 1017.93 1017.97 1018.01 1018.05 1018.09 1018.17 1018.21 1018.25 1018.37 1018.45 1018.49 1018.57
1012.29 1012.37 1012.45 1012.57 1012.65 1012.81 1012.89 1012.93 1013.05 1013.13 1013.21 1013.33 1013.41 1013.53 1013.65 1013.73 1013.89 1014.09 1014.21 1014.33 1014.45 1014.57 1014.69 1014.85 1014.97 1015.09 1015.21 1015.29 1015.37 1015.45 1015.53 1015.65 1015.73 1015.85 1015.97 1016.01 1016.09 1016.13 1016.21 1016.37 1016.53 1016.61 1016.69 1016.73 1016.81 1016.85 1016.97 1017.13 1017.29 1017.45 1017.53 1017.61 1017.69 1017.77 1017.81 1017.85 1017.85 1017.89 1017.93 1017.93 1017.93 1018.01 1018.09 1018.13 1018.21 1018.29 1018.37 1018.45 1018.61
1012.49 1012.53 1012.65 1012.73 1012.81 1012.89 1012.97 1013.05 1013.13 1013.21 1013.33 1013.37 1013.49 1013.57 1013.65 1013.81 1013.93 1014.09 1014.25 1014.37 1014.49 1014.61 1014.77 1014.93 1015.01 1015.13 1015.21 1015.29 1015.37 1015.45 1015.49 1015.61 1015.69 1015.81 1015.93 1015.93 1015.97 1016.05 1016.13 1016.25 1016.49 1016.65 1016.77 1016.81 1016.85 1016.93 1016.97 1017.09 1017.25 1017.41 1017.49 1017.53 1017.61 1017.69 1017.77 1017.81 1017.81 1017.85 1017.89 1017.93 1017.93 1017.97 1018.01 1018.09 1018.17 1018.25 1018.33 1018.41 1018.65
1012.65 1012.73 1012.81 1012.89 1012.93 1012.97 1013.05 1013.13 1013.21 1013.33 1013.37 1013.45 1013.49 1013.57 1013.69 1013.81 1014.01 1014.13 1014.21 1014.41 1014.53 1014.65 1014.81 1014.93 1015.05 1015.13 1015.21 1015.33 1015.37 1015.45 1015.49 1015.61 1015.69 1015.81 1015.85 1015.93 1015.93 1016.05 1016.13 1016.25 1016.45 1016.65 1016.81 1016.93 1016.93 1016.97 1017.01 1017.09 1017.21 1017.37 1017.45 1017.49 1017.53 1017.61 1017.65 1017.73 1017.81 1017.81 1017.85 1017.89 1017.89 1017.93 1017.97 1018.01 1018.09 1018.17 1018.21 1018.37 1018.61
1012.85 1012.89 1012.93 1012.97 1013.01 1013.05 1013.09 1013.13 1013.21 1013.33 1013.41 1013.45 1013.53 1013.61 1013.73 1013.89 1014.05 1014.17 1014.25 1014.41 1014.53 1014.65 1014.77 1014.93 1015.05 1015.17 1015.25 1015.37 1015.41 1015.49 1015.53 1015.65 1015.77 1015.81 1015.89 1015.93 1016.01 1016.09 1016.21 1016.25 1016.45 1016.65 1016.81 1016.93 1017.05 1017.05 1017.09 1017.13 1017.21 1017.33 1017.41 1017.45 1017.49 1017.49 1017.57 1017.65 1017.69 1017.77 1017.81 1017.81 1017.81 1017.85 1017.93 1017.93 1018.01 1018.09 1018.13 1018.25 1018.41
Wind_Speed
6 5 4 4 4 4 4 3 4 4 6 7 9 9 7 4 2 1 1 2 2 2 2 2 3 3 5 7 8 8 8 7 6 5 5 4 3 3 2 2 2 1 1 2 3 4 4 5 5 5 5 6 8 9 9 8 5 5 5 5 4 4 5 5 5 5 5 5 4
7 6 5 4 4 4 4 4 4 5 6 7 8 9 9 7 5 3 2 2 2 3 3 4 5 6 7 10 11 10 9 8 8 7 6 5 5 4 4 3 3 2 2 3 4 4 4 4 5 4 5 6 7 8 7 6 5 5 5 5 3 2 3 3 4 4 5 5 5
7 7 6 5 5 4 4 5 5 6 7 7 7 8 9 9 7 6 4 3 3 3 3 3 5 7 8 9 10 10 9 8 8 7 7 6 6 5 5 5 4 3 2 2 2 2 2 2 3 3 4 4 5 4 3 3 3 3 2 0 1 1 2 2 3 2 2 2 3
7 7 6 6 6 6 5 5 6 7 7 6 6 7 7 7 8 7 6 3 3 2 2 2 3 5 6 7 9 9 8 7 7 7 7 7 7 6 6 6 7 6 4 2 2 3 3 3 1 0 1 2 2 1 2 3 3 3 3 3 3 3 3 4 4 3 3 2 2
6 6 6 5 6 6 6 5 6 6 5 5 5 4 4 5 6 7 6 4 3 3 4 4 3 3 5 8 8 7 7 7 7 7 8 9 9 8 7 6 7 6 6 5 5 6 7 7 4 3 2 3 2 2 2 3 3 3 3 3 3 3 4 4 3 3 3 3 3
6 6 6 6 6 6 5 5 6 5 4 4 5 5 5 3 4 5 6 6 5 6 6 7 6 5 5 7 7 6 7 7 7 8 9 11 10 10 9 8 8 8 8 7 8 8 8 7 5 4 3 3 3 2 2 2 2 3 3 3 3 3 3 3 3 2 3 3 4
6 6 7 7 7 6 5 5 6 5 5 4 6 7 7 6 6 6 7 7 7 7 7 7 7 6 6 7 7 6 6 7 7 9 10 10 10 10 10 10 10 10 9 8 8 8 7 7 5 4 3 3 2 2 2 2 2 2 2 3 2 3 3 3 2 2 3 4 5
6 6 6 7 7 7 6 6 6 6 5 4 4 6 8 9 9 9 9 8 8 8 8 7 8 9 9 8 7 7 8 8 8 8 9 10 10 11 11 11 11 11 10 9 8 7 7 6 5 4 3 1 1 2 1 1 2 2 3 3 3 3 3 3 2 3 3 5 5
6 6 6 6 6 7 7 6 6 6 5 5 4 5 7 9 10 10 10 8 8 8 8 8 10 11 11 10 9 9 8 9 9 9 9 9 10 10 10 11 12 11 10 9 8 7 7 5 5 4 3 1 1 1 1 2 2 3 3 3 3 3 3 3 3 3 4 4 4
6 6 6 5 6 6 6 6 5 5 5 5 5 5 6 8 9 10 9 8 8 9 9 10 11 12 12 11 10 10 9 9 9 10 10 9 9 10 10 10 11 12 11 10 8 7 6 5 5 5 4 1 0 1 1 2 2 3 3 3 3 4 4 4 4 4 4 4 4
7 6 6 5 6 6 6 6 5 4 5 6 7 7 7 8 9 9 9 9 9 10 11 11 12 12 12 11 10 9 9 8 9 10 10 11 10 10 10 10 11 12 12 12 9 7 5 5 6 6 5 3 2 1 2 2 3 3 3 3 4 5 5 5 4 4 4 3 3
6 6 6 6 7 7 7 7 5 5 6 8 8 8 8 8 8 9 9 10 11 11 11 12 12 12 11 9 9 8 7 7 8 9 10 11 12 12 12 11 12 13 13 13 11 8 6 6 7 7 7 5 3 2 2 3 3 3 3 3 4 5 5 5 4 4 3 3 3
5 6 6 6 7 8 8 8 6 6 7 8 8 8 7 7 8 9 9 10 10 9 9 10 11 11 11 10 9 8 7 6 7 7 8 9 10 11 12 11 12 12 12 12 11 9 8 7 8 9 8 6 4 3 3 4 3 2 2 3 3 4 4 4 4 3 3 3 2
5 5 6 6 7 8 8 8 6 6 6 7 7 6 6 6 7 7 8 9 8 8 8 8 8 9 10 12 11 9 8 7 7 7 7 7 8 9 10 10 11 11 11 10 11 10 10 9 9 9 9 8 6 5 4 4 3 2 2 3 3 4 4 4 4 4 3 2 1
5 5 5 5 6 6 6 6 5 5 5 5 5 5 5 5 5 5 6 7 7 7 7 7 7 8 10 13 13 11 10 8 7 7 7 7 7 8 8 9 10 10 10 10 10 10 10 10 10 9 9 8 7 6 5 4 3 2 2 2 3 3 4 4 4 4 4 3 2
5 5 5 5 5 5 5 5 4 4 4 4 4 4 4 4 4 5 5 6 6 6 6 7 7 9 11 13 13 12 10 9 8 8 8 8 7 7 8 8 9 10 10 11 10 10 10 9 9 8 8 8 7 7 6 4 3 2 2 2 2 3 4 4 4 4 4 4 3
6 6 6 6 6 6 6 5 4 4 4 5 5 5 4 4 4 4 5 5 5 5 6 7 8 9 11 12 12 11 10 9 9 8 8 8 8 8 8 8 9 10 10 11 11 10 10 9 8 7 7 8 7 7 6 5 3 2 2 2 3 3 4 4 4 4 4 4 4
7 7 7 7 7 7 7 7 6 5 5 5 5 5 4 4 5 5 5 5 6 7 8 8 8 10 11 12 10 9 9 9 9 8 8 9 9 9 9 9 9 9 10 10 10 10 10 9 8 7 7 7 7 7 6 5 4 3 3 3 3 4 4 4 3 3 3 3 3
8 8 8 8 8 8 8 8 7 7 6 6 5 5 5 5 6 6 5 5 6 7 9 9 9 10 11 12 10 9 8 9 9 9 9 9 9 10 10 10 9 9 9 10 10 10 9 9 8 8 7 7 7 7 6 6 5 4 4 4 4 4 4 4 3 3 3 2 2
8 8 8 8 8 8 8 8 8 7 6 6 6 6 6 6 6 6 6 6 6 7 9 10 10 10 10 11 11 10 9 8 9 9 9 9 9 10 10 10 10 10 10 10 10 9 9 8 8 8 8 8 8 7 7 6 6 5 5 4 4 4 4 4 3 3 3 3 2
7 7 7 7 7 8 8 8 8 8 7 7 7 7 7 7 7 7 7 7 7 8 8 9 10 10 11 11 11 10 9 8 9 9 9 9 9 9 9 10 10 9 9 9 9 9 9 8 8 8 8 8 8 8 7 7 7 6 6 5 4 4 4 4 4 3 3 3 3
5 5 6 6 7 7 8 8 8 8 8 8 8 8 8 8 8 8 8 8 8 8 8 8 9 10 10 10 10 10 9 8 8 9 9 8 8 8 8 8 9 9 8 8 8 8 9 8 8 8 8 7 8 8 8 8 8 7 7 6 5 5 5 4 4 4 3 3 3
6 6 6 7 8 8 8 9 9 9 9 8 8 8 8 8 8 8 8 8 8 8 8 7 8 9 9 9 10 10 9 9 9 8 8 8 8 8 8 7 8 8 8 7 8 8 8 8 8 8 7 7 8 8 8 8 8 8 7 7 6 5 4 4 4 4 3 3 3
7 7 7 7 8 8 9 9 9 9 9 9 9 9 9 9 9 9 9 9 9 8 8 7 7 8 9 9 9 9 9 10 9 9 9 9 8 8 8 7 7 7 7 6 7 7 7 7 7 7 7 7 6 6 6 6 6 6 6 6 6 5 4 3 3 3 3 3 3
8 8 8 8 8 8 9 9 9 9 9 9 9 9 9 9 9 9 9 9 9 9 9 9 8 8 8 8 8 8 8 9 9 9 9 9 8 8 7 7 6 6 6 6 8 9 9 8 7 6 6 6 5 5 4 4 4 4 4 4 5 5 4 4 4 3 4 4 4
9 9 9 9 9 9 9 9 9 9 9 9 9 9 9 8 8 9 9 9 9 9 9 9 9 8 8 8 8 8 7 7 8 9 9 9 9 8 7 6 6 5 6 7 10 11 11 10 9 8 7 6 5 5 5 4 4 3 3 3 3 3 4 4 4 5 5 5 5
9 9 9 9 10 10 9 9 9 9 9 9 9 9 9 8 8 9 9 9 9 9 9 8 8 8 8 7 8 8 7 6 7 8 9 9 9 9 8 6 6 6 6 10 12 13 12 12 11 10 8 6 6 5 5 4 4 3 3 2 2 2 2 3 3 4 4 4 4
9 9 10 10 10 10 9 9 9 9 9 9 9 9 9 9 9 9 9 9 9 8 8 7 7 6 6 6 7 8 8 8 8 8 8 9 9 9 8 7 6 7 9 12 14 14 13 13 12 11 9 7 6 5 5 5 4 4 3 2 2 2 2 2 2 2 3 3 2
9 10 10 10 10 10 9 10 9 9 9 9 9 9 10 10 9 9 9 9 8 7 6 5 5 5 5 6 7 8 8 8 8 8 8 9 8 8 7 7 7 9 11 14 14 14 14 13 12 11 10 8 6 4 4 4 3 3 3 2 2 2 2 2 2 2 2 2 1
9 9 10 10 10 10 9 9 9 9 9 9 9 10 10 9 9 9 9 8 8 7 6 6 6 6 7 7 7 7 7 7 7 7 8 8 8 8 7 7 8 9 11 14 14 14 14 13 12 11 10 9 7 5 4 3 3 3 2 2 2 3 3 2 2 2 2 1 1
9 9 9 9 10 9 9 9 9 9 9 9 9 9 9 9 9 8 8 7 7 7 7 7 8 8 8 7 7 7 7 7 7 7 8 8 8 8 8 8 8 9 11 13 13 14 14 13 13 12 10 9 7 5 4 4 3 3 3 3 3 3 3 3 2 2 2 2 2
9 9 10 10 9 9 9 9 9 9 9 9 9 9 9 9 8 8 7 7 7 7 7 8 8 8 8 7 7 7 7 7 7 7 7 8 8 8 8 8 8 9 10 13 13 14 14 14 13 12 10 8 6 5 5 4 4 3 3 3 3 3 3 2 2 2 2 2 2
10 10 10 10 10 9 9 9 9 9 9 9 9 9 9 8 8 7 7 6 6 7 7 8 8 8 8 7 7 7 7 7 7 7 8 8 8 8 8 7 7 8 10 12 13 14 14 14 13 12 10 8 6 5 4 4 3 3 3 3 3 2 2 2 2 2 2 3 2
10 10 10 9 9 9 9 9 9 9 9 9 8 8 8 8 8 7 6 6 5 6 6 7 7 7 7 7 7 7 6 6 7 7 8 8 8 8 7 6 5 7 10 12 13 14 14 14 13 11 10 8 5 4 4 4 3 3 2 2 2 2 2 2 2 2 2 2 2
9 10 9 9 9 9 8 8 8 8 8 8 8 8 7 7 7 7 6 5 5 5 6 6 6 6 6 6 6 7 7 7 7 7 8 8 8 8 7 7 6 7 10 11 13 13 13 13 12 11 9 7 4 4 3 3 2 2 2 2 2 2 2 2 2 2 2 2 2
9 9 9 9 8 8 8 8 7 7 7 7 7 7 7 7 7 6 6 6 5 5 6 6 6 6 6 6 6 6 6 7 7 7 7 8 8 8 8 7 7 8 9 10 12 12 13 13 12 10 8 6 4 3 3 2 2 1 1 2 2 2 2 2 2 2 2 2 2
8 8 9 9 8 8 7 7 7 7 7 7 7 7 7 7 6 6 6 6 6 6 5 5 5 6 6 6 6 6 6 7 7 7 7 7 8 8 8 8 8 8 8 9 10 11 12 12 11 10 8 5 3 3 2 2 1 1 1 1 2 2 2 2 2 2 2 2 1
7 7 8 8 8 7 7 7 7 7 7 7 7 7 7 7 6 6 6 5 5 6 6 5 5 5 6 6 5 5 6 6 7 7 7 7 7 7 8 8 8 7 7 8 9 10 10 11 11 9 7 4 4 3 2 2 1 1 1 1 1 2 2 2 2 2 2 2 2
6 6 6 7 7 7 7 7 7 7 7 7 7 7 7 7 6 6 6 5 5 6 6 5 5 5 5 5 5 5 5 5 6 6 6 6 6 6 7 8 8 7 7 7 8 8 9 10 10 9 7 4 3 3 2 2 1 1 1 1 1 1 2 2 2 2 2 3 4
4 5 5 6 6 6 6 6 6 6 6 6 7 7 7 7 6 6 5 5 5 5 6 6 6 6 5 5 5 5 5 5 5 5 5 5 5 5 6 7 7 7 7 7 7 7 8 9 10 9 7 4 3 3 2 2 1 1 1 1 1 1 1 2 2 2 2 3 4
3 3 4 4 5 5 5 6 6 6 6 6 6 6 6 6 6 6 5 4 5 5 5 5 6 6 5 5 4 5 5 5 5 4 4 4 4 4 4 6 7 7 7 7 7 7 7 8 9 9 7 4 3 2 2 2 1 1 2 2 1 1 1 1 1 2 2 3 4
Wind_Direction
176 173 169 168 169 166 164 165 177 192 200 202 203 208 215 227 218 160 136 132 142 165 193 209 206 199 191 186 182 178 173 166 159 154 150 153 150 142 135 139 149 177 222 245 245 245 243 240 241 242 244 245 243 242 242 243 235 215 198 194 191 187 187 189 189 184 176 171 175
175 174 170 163 161 158 157 157 170 185 193 194 194 200 207 215 215 210 193 184 193 209 223 232 228 221 211 201 196 190 183 175 170 165 161 159 153 143 134 131 141 166 210 239 241 240 236 234 234 237 239 239 238 238 240 246 240 227 212 201 189 181 181 182 177 175 176 177 179
176 173 171 167 163 159 157 159 169 178 183 183 182 186 192 200 206 208 204 187 188 199 213 221 223 220 214 206 202 198 191 179 171 166 161 157 149 139 126 112 111 125 168 229 248 254 247 233 230 234 239 244 244 245 255 294 292 278 265 310 40 61 75 79 83 99 130 159 167
182 177 172 172 170 165 160 158 165 169 172 171 170 173 179 186 193 198 197 177 152 145 161 184 206 215 216 210 205 199 189 166 153 143 136 129 126 123 119 111 105 105 107 107 48 31 31 30 27 272 262 294 311 330 353 360 15 26 30 21 31 48 61 67 65 64 67 76 93
187 182 176 175 174 167 155 143 148 151 151 145 144 147 157 171 182 185 182 161 138 127 129 136 146 181 204 207 196 181 160 139 128 121 116 110 108 109 110 110 106 102 98 96 81 65 56 52 51 43 25 360 359 7 17 20 36 46 47 34 36 47 58 65 66 66 69 73 72
186 187 186 181 180 172 156 134 126 119 113 117 126 130 132 137 156 165 164 153 140 131 127 124 128 145 172 188 177 157 135 124 119 115 112 109 109 109 108 104 98 94 93 94 91 84 78 73 69 56 35 12 357 5 29 45 54 62 65 58 50 53 61 67 69 73 80 87 85
177 183 185 183 181 177 165 142 123 109 99 98 123 131 133 131 135 143 147 143 139 135 133 130 136 142 151 161 155 143 130 121 116 114 113 113 115 115 112 106 98 95 93 93 91 90 90 90 87 74 52 24 354 352 14 63 80 91 92 85 70 64 64 66 66 74 84 92 93
161 167 171 174 175 173 165 149 133 119 107 97 121 133 136 133 133 134 135 137 141 143 144 143 147 149 149 149 144 137 129 123 118 115 114 117 119 118 116 112 107 103 100 97 97 99 101 101 99 94 82 39 328 325 356 78 103 112 109 101 90 79 74 75 75 83 90 95 96
144 146 149 154 160 159 154 142 134 125 118 112 124 137 140 137 136 136 137 141 146 150 151 153 153 151 149 147 143 138 134 129 124 122 121 122 123 123 122 119 117 113 109 104 105 108 111 110 109 107 106 94 296 312 21 80 102 108 108 105 103 101 98 96 96 95 95 96 95
137 134 133 134 139 138 134 126 123 124 128 131 142 148 148 143 143 144 145 147 150 153 156 157 155 152 148 145 143 141 139 135 133 132 132 132 133 134 133 131 127 124 120 117 116 116 117 116 114 112 110 106 9 18 61 85 99 103 104 107 114 116 116 112 106 103 101 101 102
130 126 123 122 125 125 123 121 121 133 147 156 161 163 160 155 152 151 151 151 155 158 158 157 153 149 145 142 142 142 143 142 143 144 145 146 146 146 144 142 137 133 130 128 127 125 124 123 119 116 114 111 99 88 91 101 102 105 111 124 131 130 126 121 119 115 112 113 115
125 122 121 122 128 132 136 139 146 158 166 170 169 168 166 162 158 155 154 157 160 160 158 154 150 145 140 136 137 138 140 144 148 150 151 153 152 150 149 146 141 137 133 130 130 129 129 129 124 122 121 124 127 130 129 123 114 116 130 147 146 136 127 121 122 121 119 119 122
123 124 126 130 138 145 151 158 166 175 180 179 175 170 165 161 159 158 158 160 160 158 154 150 145 140 136 131 129 129 130 134 140 143 146 149 149 148 146 144 140 135 131 128 128 128 130 130 128 128 131 138 145 147 140 130 125 134 158 170 152 133 119 114 112 106 101 101 114
127 129 132 138 143 147 152 157 162 171 177 177 169 161 156 154 155 157 157 157 155 151 147 144 141 136 131 126 121 117 116 117 123 128 132 138 140 141 141 138 134 130 126 123 124 126 129 131 131 134 138 144 145 142 136 129 133 158 187 186 152 131 119 114 108 102 97 96 114
139 139 138 140 139 139 138 141 143 147 151 152 146 141 138 138 141 143 144 145 145 144 141 139 135 126 119 114 111 109 110 114 121 125 128 130 131 132 132 130 126 122 120 119 121 124 127 130 133 137 141 143 140 136 133 130 143 175 198 188 150 132 124 122 122 121 122 130 157
152 146 141 136 131 126 122 123 121 124 127 128 124 121 119 119 120 123 127 132 135 134 133 131 124 114 107 103 105 109 115 122 126 128 129 128 127 125 123 121 118 116 116 117 120 121 124 127 132 137 140 139 135 132 131 130 141 164 182 167 138 129 128 130 135 137 140 150 170
159 153 147 140 133 127 122 119 116 117 120 120 118 116 114 114 115 116 120 125 126 124 121 118 112 106 103 102 108 114 122 128 130 131 131 130 127 123 119 115 114 114 115 117 119 120 121 124 129 133 136 134 131 129 129 127 133 143 151 137 125 124 126 132 138 139 142 154 166
162 158 153 147 141 135 130 127 125 125 126 126 123 121 118 118 117 116 116 118 120 118 115 109 106 106 108 111 115 121 127 131 132 132 132 131 128 124 119 114 113 114 115 116 118 119 121 123 126 129 130 129 126 125 124 125 132 141 145 134 124 123 125 131 132 132 135 149 151
162 159 156 152 146 141 136 133 131 130 129 129 126 123 121 120 118 115 113 113 115 116 115 111 109 110 113 118 120 123 127 129 130 130 129 129 127 124 121 118 116 116 116 117 118 119 122 124 127 128 128 126 123 123 124 129 140 148 149 141 133 131 131 133 129 127 131 141 139
161 159 156 151 145 140 135 132 129 127 126 123 122 120 119 117 115 114 113 113 114 116 117 116 116 116 117 120 121 123 124 125 126 127 126 125 124 122 121 120 119 119 119 119 121 122 124 128 129 129 129 127 127 129 134 141 149 153 151 144 141 140 139 136 133 134 139 145 145
155 153 149 143 138 134 130 127 124 122 120 117 116 116 116 114 113 113 113 114 114 115 116 118 120 121 122 122 122 123 123 121 123 124 123 121 120 120 120 121 121 120 120 122 124 126 128 130 131 131 131 131 134 139 146 152 155 155 153 149 147 145 143 141 143 147 151 156 156
125 124 123 123 123 121 120 120 119 117 115 113 113 112 112 111 110 110 110 111 111 112 114 116 119 121 122 122 122 122 121 119 120 121 121 120 118 116 116 117 119 120 121 123 125 127 128 130 131 132 134 137 143 150 156 159 158 156 154 151 148 146 146 147 149 152 155 160 167
93 93 95 99 104 107 109 112 112 111 110 109 108 108 109 109 108 108 108 108 109 109 109 108 110 112 113 114 116 118 118 118 117 117 118 119 117 115 115 116 119 121 123 124 126 127 128 129 132 135 138 142 152 159 163 162 160 158 155 151 147 145 146 148 147 147 153 167 179
91 90 89 89 94 97 100 103 105 105 105 106 107 107 108 109 109 109 109 109 108 107 106 103 101 101 102 104 109 113 116 119 119 118 118 118 118 118 119 119 122 124 125 125 129 130 132 131 134 137 140 145 153 158 159 156 155 153 151 149 145 144 146 147 143 146 159 188 197
94 93 91 90 92 94 96 97 100 102 104 106 108 108 109 110 110 110 110 108 106 105 104 103 102 100 100 101 104 108 113 117 120 120 120 120 120 122 123 124 125 125 126 128 133 134 133 132 133 136 139 143 144 141 134 123 123 126 132 138 140 144 150 156 158 166 181 200 210
94 93 92 93 94 95 96 97 99 101 103 105 106 107 107 107 107 107 106 105 104 103 103 104 104 104 104 104 105 107 109 113 118 121 122 124 125 126 126 126 126 126 128 134 137 136 134 132 132 134 136 138 136 130 122 111 105 104 108 115 130 144 159 169 172 181 189 198 209
94 94 94 96 97 98 99 100 101 102 102 104 104 105 104 104 103 102 102 102 102 102 101 102 104 106 108 110 112 114 116 118 122 124 126 128 130 130 129 127 127 128 133 141 141 139 135 133 134 135 135 133 130 127 123 120 115 110 106 109 128 148 165 177 179 186 192 196 203
99 100 100 100 101 101 102 104 104 103 103 103 103 103 102 101 100 101 102 103 102 101 100 100 103 106 110 114 119 122 125 127 129 131 132 132 132 131 130 129 129 134 141 147 146 143 139 137 136 134 131 126 122 120 120 123 124 123 124 132 139 146 162 188 193 194 196 197 203
105 106 107 106 106 106 105 105 106 105 104 103 102 101 100 99 101 102 103 104 102 102 102 103 104 106 110 116 121 124 126 128 131 132 132 132 130 129 128 128 131 139 147 152 150 146 141 138 134 128 122 115 112 113 118 122 126 130 137 148 151 159 174 196 201 199 196 197 211
105 107 108 108 108 108 107 107 107 107 106 105 103 101 100 100 102 104 105 104 103 104 107 109 108 109 111 115 118 121 123 127 128 130 130 130 128 127 128 130 135 143 150 153 149 144 139 135 129 123 117 113 113 114 118 124 127 133 144 156 165 171 178 189 196 196 193 193 208
101 102 103 103 104 104 104 104 105 106 107 107 106 105 104 104 105 105 106 105 105 107 108 109 110 110 111 113 117 122 126 129 131 132 132 131 130 130 131 134 137 143 147 149 144 139 134 130 125 123 121 121 122 124 128 131 135 142 153 165 169 173 177 184 186 187 188 192 203
100 99 98 98 99 100 100 101 103 105 106 106 106 105 105 105 105 105 105 106 108 110 111 111 112 113 114 117 122 127 132 135 137 136 134 132 132 132 133 134 138 142 144 144 139 134 131 127 125 125 126 128 128 129 130 134 140 149 158 166 167 170 174 180 181 181 184 188 198
100 99 98 98 100 102 103 104 105 105 105 105 105 105 105 105 105 105 105 106 110 114 116 116 118 120 123 127 131 134 137 137 136 134 132 132 132 133 134 134 137 142 144 142 137 133 130 127 127 127 127 126 123 125 130 137 144 151 156 160 161 165 169 175 181 184 186 186 190
104 102 100 99 101 102 104 105 106 106 105 105 106 107 109 110 110 110 111 112 116 119 120 122 124 128 132 137 140 142 142 140 137 135 135 135 136 137 138 138 140 144 145 142 137 133 131 129 129 128 126 124 122 126 133 140 144 148 151 153 158 162 167 173 181 190 194 188 188
109 107 105 103 102 102 102 103 104 106 107 109 111 113 114 115 116 117 119 121 122 123 124 125 129 133 138 143 147 149 148 145 142 141 141 142 143 142 141 140 142 146 147 144 139 136 134 133 133 132 130 128 128 131 135 135 140 145 150 156 163 166 169 171 177 187 196 197 194
113 112 110 108 106 105 104 105 106 108 110 113 116 117 119 120 121 123 125 128 129 128 128 130 134 138 143 149 153 155 153 149 147 147 148 149 149 147 144 142 143 147 148 146 141 139 138 138 137 135 134 130 129 130 131 131 138 149 161 175 178 176 174 174 176 183 194 201 199
116 116 115 114 113 112 111 111 111 111 113 116 118 120 122 124 124 127 130 134 136 135 135 137 140 145 149 153 155 156 154 151 150 151 153 155 153 149 146 143 144 146 149 148 145 144 143 142 140 139 137 131 130 129 130 130 140 161 182 200 194 185 176 173 178 185 191 196 193
120 120 120 120 120 121 121 120 118 117 118 119 120 123 125 126 127 131 136 142 143 143 143 145 148 151 153 154 155 155 155 152 151 152 155 158 156 151 147 144 144 145 148 150 149 149 148 146 144 143 142 137 136 136 135 137 151 175 195 209 204 190 181 175 178 183 184 175 137
123 124 124 125 127 127 127 126 124 123 123 123 126 128 128 128 131 136 143 148 149 149 150 153 156 156 155 154 155 154 153 148 148 150 154 158 155 149 145 145 145 145 148 152 154 154 154 152 150 149 148 146 146 144 144 145 162 184 201 213 210 197 188 185 181 185 178 158 134
119 122 126 129 131 130 130 128 127 127 129 132 133 132 131 130 134 140 146 149 151 151 153 156 158 156 153 152 153 152 148 143 144 148 152 152 144 141 142 147 146 147 149 153 158 161 162 160 156 155 156 160 161 157 151 152 169 187 201 207 209 202 196 193 188 190 183 162 150
105 112 122 130 131 132 130 130 129 130 132 136 135 132 131 132 136 141 145 148 150 150 151 153 154 152 150 149 151 152 150 145 143 143 141 135 130 134 143 148 147 149 153 157 163 168 170 169 164 162 164 172 174 168 159 158 174 192 202 204 202 203 202 202 202 201 194 177 167